Year,Month,Day,Hour,Minute,Value (Times are PST for temperature in C)
2015,04,25,00,00,4.70
2015,04,25,00,01,4.70
2015,04,25,00,02,4.70
2015,04,25,00,03,4.70
2015,04,25,00,04,4.70
2015,04,25,00,05,4.70
2015,04,25,00,06,4.60
2015,04,25,00,07,4.60
2015,04,25,00,08,4.60
2015,04,25,00,09,4.60
2015,04,25,00,10,4.60
2015,04,25,00,11,4.60
2015,04,25,00,12,4.60
2015,04,25,00,13,4.60
2015,04,25,00,14,4.50
2015,04,25,00,15,4.50
2015,04,25,00,16,4.50
2015,04,25,00,17,4.50
2015,04,25,00,18,4.50
2015,04,25,00,19,4.50
2015,04,25,00,20,4.50
2015,04,25,00,21,4.50
2015,04,25,00,22,4.50
2015,04,25,00,23,4.50
2015,04,25,00,24,4.50
2015,04,25,00,25,4.50
2015,04,25,00,26,4.50
2015,04,25,00,27,4.50
2015,04,25,00,28,4.50
2015,04,25,00,29,4.40
2015,04,25,00,30,4.40
2015,04,25,00,31,4.40
2015,04,25,00,32,4.40
2015,04,25,00,33,4.40
2015,04,25,00,34,4.40
2015,04,25,00,35,4.40
2015,04,25,00,36,4.40
2015,04,25,00,37,4.40
2015,04,25,00,38,4.40
2015,04,25,00,39,4.30
2015,04,25,00,40,4.30
2015,04,25,00,41,4.30
2015,04,25,00,42,4.30
2015,04,25,00,43,4.30
2015,04,25,00,44,4.30
2015,04,25,00,45,4.30
2015,04,25,00,46,4.30
2015,04,25,00,47,4.30
2015,04,25,00,48,4.30
2015,04,25,00,49,4.20
2015,04,25,00,50,4.20
2015,04,25,00,51,4.20
2015,04,25,00,52,4.20
2015,04,25,00,53,4.20
2015,04,25,00,54,4.20
2015,04,25,00,55,4.20
2015,04,25,00,56,4.20
2015,04,25,00,57,4.20
2015,04,25,00,58,4.20
2015,04,25,00,59,4.20
2015,04,25,01,00,4.20
2015,04,25,01,01,4.20
2015,04,25,01,02,4.20
2015,04,25,01,03,4.20
2015,04,25,01,04,4.20
2015,04,25,01,05,4.20
2015,04,25,01,06,4.20
2015,04,25,01,07,4.20
2015,04,25,01,08,4.20
2015,04,25,01,09,4.20
2015,04,25,01,10,4.20
2015,04,25,01,11,4.20
2015,04,25,01,12,4.20
2015,04,25,01,13,4.20
2015,04,25,01,14,4.20
2015,04,25,01,15,4.20
2015,04,25,01,16,4.20
2015,04,25,01,17,4.20
2015,04,25,01,18,4.20
2015,04,25,01,19,4.20
2015,04,25,01,20,4.20
2015,04,25,01,21,4.20
2015,04,25,01,22,4.20
2015,04,25,01,23,4.20
2015,04,25,01,24,4.20
2015,04,25,01,25,4.20
2015,04,25,01,26,4.20
2015,04,25,01,27,4.20
2015,04,25,01,28,4.20
2015,04,25,01,29,4.20
2015,04,25,01,30,4.20
2015,04,25,01,31,4.10
2015,04,25,01,32,4.10
2015,04,25,01,33,4.10
2015,04,25,01,34,4.10
2015,04,25,01,35,4.10
2015,04,25,01,36,4.10
2015,04,25,01,37,4.10
2015,04,25,01,38,4.00
2015,04,25,01,39,4.00
2015,04,25,01,40,4.00
2015,04,25,01,41,4.00
2015,04,25,01,42,4.00
2015,04,25,01,43,4.00
2015,04,25,01,44,3.90
2015,04,25,01,45,3.90
2015,04,25,01,46,3.90
2015,04,25,01,47,3.90
2015,04,25,01,48,3.90
2015,04,25,01,49,3.90
2015,04,25,01,50,3.90
2015,04,25,01,51,3.90
2015,04,25,01,52,3.90
2015,04,25,01,53,3.90
2015,04,25,01,54,3.90
2015,04,25,01,55,3.90
2015,04,25,01,56,3.90
2015,04,25,01,57,3.90
2015,04,25,01,58,4.00
2015,04,25,01,59,3.90
2015,04,25,02,00,4.00
2015,04,25,02,01,4.00
2015,04,25,02,02,4.00
2015,04,25,02,03,4.10
2015,04,25,02,04,4.10
2015,04,25,02,05,4.20
2015,04,25,02,06,4.20
2015,04,25,02,07,4.20
2015,04,25,02,08,4.20
2015,04,25,02,09,4.20
2015,04,25,02,10,4.20
2015,04,25,02,11,4.20
2015,04,25,02,12,4.20
2015,04,25,02,13,4.30
2015,04,25,02,14,4.30
2015,04,25,02,15,4.30
2015,04,25,02,16,4.30
2015,04,25,02,17,4.30
2015,04,25,02,18,4.30
2015,04,25,02,19,4.30
2015,04,25,02,20,4.30
2015,04,25,02,21,4.30
2015,04,25,02,22,4.20
2015,04,25,02,23,4.20
2015,04,25,02,24,4.20
2015,04,25,02,25,4.20
2015,04,25,02,26,4.20
2015,04,25,02,27,4.20
2015,04,25,02,28,4.20
2015,04,25,02,29,4.20
2015,04,25,02,30,4.20
2015,04,25,02,31,4.20
2015,04,25,02,32,4.20
2015,04,25,02,33,4.20
2015,04,25,02,34,4.20
2015,04,25,02,35,4.20
2015,04,25,02,36,4.20
2015,04,25,02,37,4.20
2015,04,25,02,38,4.20
2015,04,25,02,39,4.20
2015,04,25,02,40,4.20
2015,04,25,02,41,4.20
2015,04,25,02,42,4.20
2015,04,25,02,43,4.20
2015,04,25,02,44,4.10
2015,04,25,02,45,4.10
2015,04,25,02,46,4.10
2015,04,25,02,47,4.10
2015,04,25,02,48,4.10
2015,04,25,02,49,4.10
2015,04,25,02,50,4.10
2015,04,25,02,51,4.10
2015,04,25,02,52,4.10
2015,04,25,02,53,4.10
2015,04,25,02,54,4.00
2015,04,25,02,55,4.00
2015,04,25,02,56,4.00
2015,04,25,02,57,4.00
2015,04,25,02,58,4.00
2015,04,25,02,59,4.00
2015,04,25,03,00,4.00
2015,04,25,03,01,4.00
2015,04,25,03,02,4.00
2015,04,25,03,03,4.00
2015,04,25,03,04,4.10
2015,04,25,03,05,4.10
2015,04,25,03,06,4.10
2015,04,25,03,07,4.10
2015,04,25,03,08,4.20
2015,04,25,03,09,4.20
2015,04,25,03,10,4.30
2015,04,25,03,11,4.40
2015,04,25,03,12,4.40
2015,04,25,03,13,4.40
2015,04,25,03,14,4.50
2015,04,25,03,15,4.50
2015,04,25,03,16,4.50
2015,04,25,03,17,4.50
2015,04,25,03,18,4.50
2015,04,25,03,19,4.50
2015,04,25,03,20,4.50
2015,04,25,03,21,4.40
2015,04,25,03,22,4.40
2015,04,25,03,23,4.40
2015,04,25,03,24,4.40
2015,04,25,03,25,4.40
2015,04,25,03,26,4.40
2015,04,25,03,27,4.40
2015,04,25,03,28,4.40
2015,04,25,03,29,4.40
2015,04,25,03,30,4.40
2015,04,25,03,31,4.40
2015,04,25,03,32,4.30
2015,04,25,03,33,4.30
2015,04,25,03,34,4.30
2015,04,25,03,35,4.30
2015,04,25,03,36,4.30
2015,04,25,03,37,4.30
2015,04,25,03,38,4.20
2015,04,25,03,39,4.20
2015,04,25,03,40,4.20
2015,04,25,03,41,4.10
2015,04,25,03,42,4.10
2015,04,25,03,43,4.10
2015,04,25,03,44,4.00
2015,04,25,03,45,4.00
2015,04,25,03,46,4.00
2015,04,25,03,47,3.90
2015,04,25,03,48,3.90
2015,04,25,03,49,3.90
2015,04,25,03,50,3.90
2015,04,25,03,51,3.90
2015,04,25,03,52,3.90
2015,04,25,03,53,3.80
2015,04,25,03,54,3.90
2015,04,25,03,55,3.90
2015,04,25,03,56,3.90
2015,04,25,03,57,3.90
2015,04,25,03,58,3.90
2015,04,25,03,59,4.00
2015,04,25,04,00,4.00
2015,04,25,04,01,4.00
2015,04,25,04,02,4.00
2015,04,25,05,02,3.50
2015,04,25,05,03,3.50
2015,04,25,05,04,3.50
2015,04,25,05,05,3.40
2015,04,25,05,06,3.40
2015,04,25,05,07,3.40
2015,04,25,05,08,3.40
2015,04,25,05,09,3.40
2015,04,25,05,10,3.40
2015,04,25,05,11,3.30
2015,04,25,05,12,3.30
2015,04,25,05,13,3.30
2015,04,25,05,14,3.20
2015,04,25,05,15,3.20
2015,04,25,05,16,3.20
2015,04,25,05,17,3.20
2015,04,25,05,18,3.20
2015,04,25,05,19,3.20
2015,04,25,05,20,3.20
2015,04,25,05,21,3.20
2015,04,25,05,22,3.20
2015,04,25,05,23,3.30
2015,04,25,05,24,3.30
2015,04,25,05,25,3.30
2015,04,25,05,26,3.30
2015,04,25,05,27,3.30
2015,04,25,05,28,3.30
2015,04,25,05,29,3.40
2015,04,25,05,30,3.40
2015,04,25,05,31,3.40
2015,04,25,05,32,3.40
2015,04,25,05,33,3.40
2015,04,25,05,34,3.40
2015,04,25,05,35,3.40
2015,04,25,05,36,3.40
2015,04,25,05,37,3.40
2015,04,25,05,38,3.40
2015,04,25,05,39,3.40
2015,04,25,05,40,3.50
2015,04,25,05,41,3.50
2015,04,25,05,42,3.50
2015,04,25,05,43,3.50
2015,04,25,05,44,3.50
2015,04,25,05,45,3.50
2015,04,25,05,46,3.50
2015,04,25,05,47,3.50
2015,04,25,05,48,3.50
2015,04,25,05,49,3.50
2015,04,25,05,50,3.50
2015,04,25,05,51,3.50
2015,04,25,05,52,3.50
2015,04,25,05,53,3.50
2015,04,25,05,54,3.50
2015,04,25,05,55,3.50
2015,04,25,05,56,3.40
2015,04,25,05,57,3.40
2015,04,25,05,58,3.40
2015,04,25,05,59,3.40
2015,04,25,06,00,3.40
2015,04,25,06,01,3.40
2015,04,25,06,02,3.40
2015,04,25,06,03,3.40
2015,04,25,06,04,3.30
2015,04,25,06,05,3.30
2015,04,25,06,06,3.30
2015,04,25,06,07,3.30
2015,04,25,06,08,3.30
2015,04,25,06,09,3.30
2015,04,25,06,10,3.30
2015,04,25,06,11,3.30
2015,04,25,06,12,3.30
2015,04,25,06,13,3.30
2015,04,25,06,14,3.30
2015,04,25,06,15,3.30
2015,04,25,06,16,3.30
2015,04,25,06,17,3.30
2015,04,25,06,18,3.30
2015,04,25,06,19,3.30
2015,04,25,06,20,3.30
2015,04,25,06,21,3.30
2015,04,25,06,22,3.30
2015,04,25,06,23,3.30
2015,04,25,06,24,3.40
2015,04,25,06,25,3.40
2015,04,25,06,26,3.40
2015,04,25,06,27,3.40
2015,04,25,06,28,3.40
2015,04,25,06,29,3.40
2015,04,25,06,30,3.40
2015,04,25,06,31,3.40
2015,04,25,06,32,3.40
2015,04,25,06,33,3.40
2015,04,25,06,34,3.40
2015,04,25,06,35,3.40
2015,04,25,06,36,3.50
2015,04,25,06,37,3.50
2015,04,25,06,38,3.50
2015,04,25,06,39,3.60
2015,04,25,06,40,3.60
2015,04,25,06,41,3.60
2015,04,25,06,42,3.60
2015,04,25,06,43,3.70
2015,04,25,06,44,3.70
2015,04,25,06,45,3.70
2015,04,25,06,46,3.70
2015,04,25,06,47,3.70
2015,04,25,06,48,3.70
2015,04,25,06,49,3.70
2015,04,25,06,50,3.70
2015,04,25,06,51,3.70
2015,04,25,06,52,3.70
2015,04,25,06,53,3.70
2015,04,25,06,54,3.70
2015,04,25,06,55,3.70
2015,04,25,06,56,3.70
2015,04,25,06,57,3.70
2015,04,25,06,58,3.70
2015,04,25,06,59,3.70
2015,04,25,07,00,3.70
2015,04,25,07,01,3.70
2015,04,25,07,02,3.70
2015,04,25,07,03,3.70
2015,04,25,07,04,3.70
2015,04,25,07,05,3.70
2015,04,25,07,06,3.70
2015,04,25,07,07,3.70
2015,04,25,07,08,3.70
2015,04,25,07,09,3.70
2015,04,25,07,10,3.70
2015,04,25,07,11,3.70
2015,04,25,07,12,3.80
2015,04,25,07,13,3.80
2015,04,25,07,14,3.80
2015,04,25,07,15,3.80
2015,04,25,07,16,3.90
2015,04,25,07,17,3.90
2015,04,25,07,18,3.90
2015,04,25,07,19,3.90
2015,04,25,07,20,3.90
2015,04,25,07,21,3.90
2015,04,25,07,22,3.90
2015,04,25,07,23,3.90
2015,04,25,07,24,3.90
2015,04,25,07,25,3.90
2015,04,25,07,26,3.90
2015,04,25,07,27,3.90
2015,04,25,07,28,3.90
2015,04,25,07,29,3.90
2015,04,25,07,30,3.90
2015,04,25,07,31,3.90
2015,04,25,07,32,3.90
2015,04,25,07,33,3.90
2015,04,25,07,34,3.90
2015,04,25,07,35,3.90
2015,04,25,07,36,3.90
2015,04,25,07,37,3.90
2015,04,25,07,38,3.90
2015,04,25,07,39,3.90
2015,04,25,07,40,3.90
2015,04,25,07,41,3.90
2015,04,25,07,42,3.90
2015,04,25,07,43,3.90
2015,04,25,07,44,3.90
2015,04,25,07,45,3.90
2015,04,25,07,46,4.00
2015,04,25,07,47,4.00
2015,04,25,07,48,4.00
2015,04,25,07,49,4.00
2015,04,25,07,50,4.00
2015,04,25,07,51,4.10
2015,04,25,07,52,4.10
2015,04,25,07,53,4.10
2015,04,25,07,54,4.10
2015,04,25,07,55,4.10
2015,04,25,07,56,4.20
2015,04,25,07,57,4.20
2015,04,25,07,58,4.20
2015,04,25,07,59,4.20
2015,04,25,08,00,4.20
2015,04,25,08,01,4.30
2015,04,25,08,02,4.30
2015,04,25,08,03,4.30
2015,04,25,08,04,4.30
2015,04,25,08,05,4.40
2015,04,25,08,06,4.40
2015,04,25,08,07,4.40
2015,04,25,08,08,4.50
2015,04,25,08,09,4.60
2015,04,25,08,10,4.60
2015,04,25,08,11,4.70
2015,04,25,08,12,4.70
2015,04,25,08,13,4.80
2015,04,25,08,14,4.80
2015,04,25,08,15,4.80
2015,04,25,08,16,4.80
2015,04,25,08,17,4.90
2015,04,25,08,18,4.90
2015,04,25,08,19,4.90
2015,04,25,08,20,4.90
2015,04,25,08,21,4.90
2015,04,25,08,22,4.90
2015,04,25,08,23,4.90
2015,04,25,08,24,4.90
2015,04,25,08,25,5.00
2015,04,25,08,26,5.00
2015,04,25,08,27,5.00
2015,04,25,08,28,5.00
2015,04,25,08,29,5.10
2015,04,25,08,30,5.10
2015,04,25,08,31,5.20
2015,04,25,08,32,5.20
2015,04,25,08,33,5.20
2015,04,25,08,34,5.30
2015,04,25,08,35,5.30
2015,04,25,08,36,5.40
2015,04,25,08,37,5.40
2015,04,25,08,38,5.40
2015,04,25,08,39,5.50
2015,04,25,08,40,5.50
2015,04,25,08,41,5.60
2015,04,25,08,42,5.60
2015,04,25,08,43,5.60
2015,04,25,08,44,5.60
2015,04,25,08,45,5.70
2015,04,25,08,46,5.70
2015,04,25,08,47,5.70
2015,04,25,08,48,5.80
2015,04,25,08,49,5.80
2015,04,25,08,50,5.80
2015,04,25,08,51,5.80
2015,04,25,08,52,5.90
2015,04,25,08,53,5.90
2015,04,25,08,54,6.00
2015,04,25,08,55,6.00
2015,04,25,08,56,6.10
2015,04,25,08,57,6.20
2015,04,25,08,58,6.20
2015,04,25,08,59,6.30
2015,04,25,09,00,6.40
2015,04,25,09,01,6.50
2015,04,25,09,02,6.70
2015,04,25,09,03,6.80
2015,04,25,09,04,6.90
2015,04,25,09,05,6.90
2015,04,25,09,06,6.90
2015,04,25,09,07,7.00
2015,04,25,09,08,7.00
2015,04,25,09,09,7.10
2015,04,25,09,10,7.20
2015,04,25,09,11,7.20
2015,04,25,09,12,7.30
2015,04,25,09,13,7.30
2015,04,25,09,14,7.40
2015,04,25,09,15,7.60
2015,04,25,09,16,7.70
2015,04,25,09,17,7.90
2015,04,25,09,18,7.90
2015,04,25,09,19,7.90
2015,04,25,09,20,8.00
2015,04,25,09,21,8.10
2015,04,25,09,22,8.20
2015,04,25,09,23,8.30
2015,04,25,09,24,8.30
2015,04,25,09,25,8.40
2015,04,25,09,26,8.50
2015,04,25,09,27,8.60
2015,04,25,09,28,8.70
2015,04,25,09,29,8.70
2015,04,25,09,30,8.80
2015,04,25,09,31,8.80
2015,04,25,09,32,8.80
2015,04,25,09,33,8.80
2015,04,25,09,34,8.80
2015,04,25,09,35,8.70
2015,04,25,09,36,8.70
2015,04,25,09,37,8.70
2015,04,25,09,38,8.80
2015,04,25,09,39,8.80
2015,04,25,09,40,8.80
2015,04,25,09,41,8.90
2015,04,25,09,42,8.80
2015,04,25,09,43,8.80
2015,04,25,09,44,8.80
2015,04,25,09,45,8.90
2015,04,25,09,46,8.90
2015,04,25,09,47,9.00
2015,04,25,09,48,9.10
2015,04,25,09,49,9.20
2015,04,25,09,50,9.30
2015,04,25,09,51,9.30
2015,04,25,09,52,9.30
2015,04,25,09,53,9.40
2015,04,25,09,54,9.40
2015,04,25,09,55,9.40
2015,04,25,09,56,9.40
2015,04,25,09,57,9.40
2015,04,25,09,58,9.40
2015,04,25,09,59,9.40
2015,04,25,10,00,9.50
2015,04,25,10,01,9.50
2015,04,25,10,02,9.60
2015,04,25,10,03,9.60
2015,04,25,10,04,9.70
2015,04,25,10,05,9.70
2015,04,25,10,06,9.60
2015,04,25,10,07,9.60
2015,04,25,10,08,9.60
2015,04,25,10,09,9.70
2015,04,25,10,10,9.80
2015,04,25,10,11,9.90
2015,04,25,10,12,9.90
2015,04,25,10,13,9.80
2015,04,25,10,14,9.70
2015,04,25,10,15,9.70
2015,04,25,10,16,9.60
2015,04,25,10,17,9.50
2015,04,25,10,18,9.40
2015,04,25,10,19,9.30
2015,04,25,10,20,9.20
2015,04,25,10,21,9.20
2015,04,25,10,22,9.20
2015,04,25,10,23,9.20
2015,04,25,10,24,9.30
2015,04,25,10,25,9.30
2015,04,25,10,26,9.30
2015,04,25,10,27,9.40
2015,04,25,10,28,9.40
2015,04,25,10,29,9.40
2015,04,25,10,30,9.30
2015,04,25,10,31,9.20
2015,04,25,10,32,9.20
2015,04,25,10,33,9.30
2015,04,25,10,34,9.30
2015,04,25,10,35,9.30
2015,04,25,10,36,9.30
2015,04,25,10,37,9.30
2015,04,25,10,38,9.30
2015,04,25,10,39,9.20
2015,04,25,10,40,9.10
2015,04,25,10,41,9.10
2015,04,25,10,42,9.10
2015,04,25,10,43,9.10
2015,04,25,10,44,9.10
2015,04,25,10,45,9.20
2015,04,25,10,46,9.20
2015,04,25,10,47,9.20
2015,04,25,10,48,9.20
2015,04,25,10,49,9.20
2015,04,25,10,50,9.20
2015,04,25,10,51,9.30
2015,04,25,10,52,9.30
2015,04,25,10,53,9.30
2015,04,25,10,54,9.30
2015,04,25,10,55,9.20
2015,04,25,10,56,9.20
2015,04,25,10,57,9.20
2015,04,25,10,58,9.30
2015,04,25,10,59,9.40
2015,04,25,11,00,9.40
2015,04,25,11,01,9.40
2015,04,25,11,02,9.40
2015,04,25,11,03,9.30
2015,04,25,11,04,9.30
2015,04,25,11,05,9.30
2015,04,25,11,06,9.30
2015,04,25,11,07,9.30
2015,04,25,11,08,9.40
2015,04,25,11,09,9.50
2015,04,25,11,10,9.60
2015,04,25,11,11,9.70
2015,04,25,11,12,9.80
2015,04,25,11,13,9.90
2015,04,25,11,14,10.10
2015,04,25,11,15,10.20
2015,04,25,11,16,10.40
2015,04,25,11,17,10.50
2015,04,25,11,18,10.60
2015,04,25,11,19,10.70
2015,04,25,11,20,10.70
2015,04,25,11,21,10.70
2015,04,25,11,22,10.80
2015,04,25,11,23,10.80
2015,04,25,11,24,10.80
2015,04,25,11,25,10.80
2015,04,25,11,26,10.80
2015,04,25,11,27,10.80
2015,04,25,11,28,10.80
2015,04,25,11,29,10.90
2015,04,25,11,30,11.00
2015,04,25,11,31,11.10
2015,04,25,11,32,11.10
2015,04,25,11,33,11.00
2015,04,25,11,34,10.90
2015,04,25,11,35,10.90
2015,04,25,11,36,10.90
2015,04,25,11,37,10.80
2015,04,25,11,38,10.70
2015,04,25,11,39,10.70
2015,04,25,11,40,10.60
2015,04,25,11,41,10.30
2015,04,25,11,42,10.10
2015,04,25,11,43,9.90
2015,04,25,11,44,9.80
2015,04,25,11,45,9.80
2015,04,25,11,46,9.70
2015,04,25,11,47,9.70
2015,04,25,11,48,9.70
2015,04,25,11,49,9.80
2015,04,25,11,50,9.90
2015,04,25,11,51,10.00
2015,04,25,11,52,10.10
2015,04,25,11,53,10.10
2015,04,25,11,54,10.10
2015,04,25,11,55,10.00
2015,04,25,11,56,9.90
2015,04,25,11,57,9.90
2015,04,25,11,58,9.90
2015,04,25,11,59,9.90
2015,04,25,12,00,9.90
2015,04,25,12,01,9.80
2015,04,25,12,02,9.90
2015,04,25,12,03,10.00
2015,04,25,12,04,10.20
2015,04,25,12,05,10.30
2015,04,25,12,06,10.30
2015,04,25,12,07,10.30
2015,04,25,12,08,10.40
2015,04,25,12,09,10.40
2015,04,25,12,10,10.40
2015,04,25,12,11,10.30
2015,04,25,12,12,10.30
2015,04,25,12,13,10.40
2015,04,25,12,14,10.40
2015,04,25,12,15,10.50
2015,04,25,12,16,10.60
2015,04,25,12,17,10.60
2015,04,25,12,18,10.70
2015,04,25,12,19,10.60
2015,04,25,12,20,10.70
2015,04,25,12,21,10.70
2015,04,25,12,22,10.80
2015,04,25,12,23,10.70
2015,04,25,12,24,10.60
2015,04,25,12,25,10.50
2015,04,25,12,26,10.50
2015,04,25,12,27,10.50
2015,04,25,12,28,10.60
2015,04,25,12,29,10.60
2015,04,25,12,30,10.60
2015,04,25,12,31,10.70
2015,04,25,12,32,10.70
2015,04,25,12,33,10.80
2015,04,25,12,34,10.80
2015,04,25,12,35,10.90
2015,04,25,12,36,11.00
2015,04,25,12,37,11.00
2015,04,25,12,38,11.00
2015,04,25,12,39,11.00
2015,04,25,12,40,11.10
2015,04,25,12,41,11.20
2015,04,25,12,42,11.20
2015,04,25,12,43,11.10
2015,04,25,12,44,10.90
2015,04,25,12,45,10.80
2015,04,25,12,46,10.80
2015,04,25,12,47,10.80
2015,04,25,12,48,10.80
2015,04,25,12,49,10.90
2015,04,25,12,50,10.90
2015,04,25,12,51,10.90
2015,04,25,12,52,10.80
2015,04,25,12,53,10.90
2015,04,25,12,54,10.90
2015,04,25,12,55,10.90
2015,04,25,12,56,11.00
2015,04,25,12,57,11.10
2015,04,25,12,58,11.20
2015,04,25,12,59,11.30
2015,04,25,13,00,11.40
2015,04,25,13,01,11.60
2015,04,25,13,02,11.70
2015,04,25,13,03,11.80
2015,04,25,13,04,11.90
2015,04,25,13,05,12.00
2015,04,25,13,06,11.90
2015,04,25,13,07,11.70
2015,04,25,13,08,11.50
2015,04,25,13,09,11.40
2015,04,25,13,10,11.30
2015,04,25,13,11,11.30
2015,04,25,13,12,11.20
2015,04,25,13,13,11.10
2015,04,25,13,14,11.00
2015,04,25,13,15,10.90
2015,04,25,13,16,10.80
2015,04,25,13,17,10.70
2015,04,25,13,18,10.70
2015,04,25,13,19,10.80
2015,04,25,13,20,10.80
2015,04,25,13,21,10.80
2015,04,25,13,22,10.80
2015,04,25,13,23,10.90
2015,04,25,13,24,11.00
2015,04,25,13,25,11.00
2015,04,25,13,26,11.10
2015,04,25,13,27,11.10
2015,04,25,13,28,11.10
2015,04,25,13,29,11.10
2015,04,25,13,30,11.00
2015,04,25,13,31,10.90
2015,04,25,13,32,11.00
2015,04,25,13,33,11.00
2015,04,25,13,34,11.00
2015,04,25,13,35,11.00
2015,04,25,13,36,11.10
2015,04,25,13,37,11.10
2015,04,25,13,38,11.20
2015,04,25,13,39,11.10
2015,04,25,13,40,11.10
2015,04,25,13,41,11.10
2015,04,25,13,42,11.10
2015,04,25,13,43,11.20
2015,04,25,13,44,11.10
2015,04,25,13,45,11.10
2015,04,25,13,46,11.10
2015,04,25,13,47,11.20
2015,04,25,13,48,11.30
2015,04,25,13,49,11.40
2015,04,25,13,50,11.60
2015,04,25,13,51,11.60
2015,04,25,13,52,11.50
2015,04,25,13,53,11.40
2015,04,25,13,54,11.50
2015,04,25,13,55,11.50
2015,04,25,13,56,11.40
2015,04,25,13,57,11.40
2015,04,25,13,58,11.30
2015,04,25,13,59,11.30
2015,04,25,14,00,11.20
2015,04,25,14,01,11.20
2015,04,25,14,02,11.20
2015,04,25,14,03,11.20
2015,04,25,14,04,11.20
2015,04,25,14,05,11.30
2015,04,25,14,06,11.30
2015,04,25,14,07,11.30
2015,04,25,14,08,11.30
2015,04,25,14,09,11.30
2015,04,25,14,10,11.40
2015,04,25,14,11,11.40
2015,04,25,14,12,11.40
2015,04,25,14,13,11.40
2015,04,25,14,14,11.40
2015,04,25,14,15,11.40
2015,04,25,14,16,11.40
2015,04,25,14,17,11.40
2015,04,25,14,18,11.40
2015,04,25,14,19,11.40
2015,04,25,14,20,11.40
2015,04,25,14,21,11.40
2015,04,25,14,22,11.40
2015,04,25,14,23,11.40
2015,04,25,14,24,11.40
2015,04,25,14,25,11.40
2015,04,25,14,26,11.40
2015,04,25,14,27,11.30
2015,04,25,14,28,11.30
2015,04,25,14,29,11.20
2015,04,25,14,30,11.20
2015,04,25,14,31,11.30
2015,04,25,14,32,11.30
2015,04,25,14,33,11.20
2015,04,25,14,34,11.30
2015,04,25,14,35,11.30
2015,04,25,14,36,11.30
2015,04,25,14,37,11.30
2015,04,25,14,38,11.30
2015,04,25,14,39,11.30
2015,04,25,14,40,11.30
2015,04,25,14,41,11.30
2015,04,25,14,42,11.30
2015,04,25,14,43,11.20
2015,04,25,14,44,11.30
2015,04,25,14,45,11.30
2015,04,25,14,46,11.30
2015,04,25,14,47,11.30
2015,04,25,14,48,11.30
2015,04,25,14,49,11.40
2015,04,25,14,50,11.50
2015,04,25,14,51,11.50
2015,04,25,14,52,11.40
2015,04,25,14,53,11.40
2015,04,25,14,54,11.30
2015,04,25,14,55,11.40
2015,04,25,14,56,11.40
2015,04,25,14,57,11.50
2015,04,25,14,58,11.50
2015,04,25,14,59,11.60
2015,04,25,15,00,11.60
2015,04,25,15,01,11.50
2015,04,25,15,02,11.40
2015,04,25,15,03,11.40
2015,04,25,15,04,11.30
2015,04,25,15,05,11.30
2015,04,25,15,06,11.20
2015,04,25,15,07,11.30
2015,04,25,15,08,11.30
2015,04,25,15,09,11.40
2015,04,25,15,10,11.40
2015,04,25,15,11,11.30
2015,04,25,15,12,11.30
2015,04,25,15,13,11.30
2015,04,25,15,14,11.30
2015,04,25,15,15,11.30
2015,04,25,15,16,11.30
2015,04,25,15,17,11.20
2015,04,25,15,18,11.10
2015,04,25,15,19,11.00
2015,04,25,15,20,11.00
2015,04,25,15,21,10.90
2015,04,25,15,22,10.90
2015,04,25,15,23,11.00
2015,04,25,15,24,11.10
2015,04,25,15,25,11.10
2015,04,25,15,26,11.10
2015,04,25,15,27,11.10
2015,04,25,15,28,11.20
2015,04,25,15,29,11.20
2015,04,25,15,30,11.20
2015,04,25,15,31,11.10
2015,04,25,15,32,11.10
2015,04,25,15,33,11.10
2015,04,25,15,34,11.10
2015,04,25,15,35,11.20
2015,04,25,15,36,11.20
2015,04,25,15,37,11.20
2015,04,25,15,38,11.20
2015,04,25,15,39,11.20
2015,04,25,15,40,11.20
2015,04,25,15,41,11.20
2015,04,25,15,42,11.20
2015,04,25,15,43,11.00
2015,04,25,15,44,11.00
2015,04,25,15,45,10.90
2015,04,25,15,46,10.90
2015,04,25,15,47,10.90
2015,04,25,15,48,10.90
2015,04,25,15,49,11.00
2015,04,25,15,50,11.10
2015,04,25,15,51,11.10
2015,04,25,15,52,11.10
2015,04,25,15,53,11.20
2015,04,25,15,54,11.20
2015,04,25,15,55,11.20
2015,04,25,15,56,11.30
2015,04,25,15,57,11.30
2015,04,25,15,58,11.30
2015,04,25,15,59,11.30
2015,04,25,16,00,11.30
2015,04,25,16,01,11.20
2015,04,25,16,02,11.20
2015,04,25,16,03,11.20
2015,04,25,16,04,11.20
2015,04,25,16,05,11.20
2015,04,25,16,06,11.20
2015,04,25,16,07,11.20
2015,04,25,16,08,11.20
2015,04,25,16,09,11.20
2015,04,25,16,10,11.30
2015,04,25,16,11,11.30
2015,04,25,16,12,11.30
2015,04,25,16,13,11.30
2015,04,25,16,14,11.30
2015,04,25,16,15,11.30
2015,04,25,16,16,11.40
2015,04,25,16,17,11.50
2015,04,25,16,18,11.60
2015,04,25,16,19,11.70
2015,04,25,16,20,11.70
2015,04,25,16,21,11.70
2015,04,25,16,22,11.70
2015,04,25,16,23,11.70
2015,04,25,16,24,11.80
2015,04,25,16,25,11.80
2015,04,25,16,26,11.80
2015,04,25,16,27,11.80
2015,04,25,16,28,11.80
2015,04,25,16,29,11.80
2015,04,25,16,30,11.70
2015,04,25,16,31,11.70
2015,04,25,16,32,11.70
2015,04,25,16,33,11.70
2015,04,25,16,34,11.70
2015,04,25,16,35,11.60
2015,04,25,16,36,11.70
2015,04,25,16,37,11.70
2015,04,25,16,38,11.70
2015,04,25,16,39,11.60
2015,04,25,16,40,11.70
2015,04,25,16,41,11.70
2015,04,25,16,42,11.80
2015,04,25,16,43,11.80
2015,04,25,16,44,11.70
2015,04,25,16,45,11.70
2015,04,25,16,46,11.70
2015,04,25,16,47,11.70
2015,04,25,16,48,11.70
2015,04,25,16,49,11.80
2015,04,25,16,50,11.80
2015,04,25,16,51,11.80
2015,04,25,16,52,11.80
2015,04,25,16,53,11.70
2015,04,25,16,54,11.70
2015,04,25,16,55,11.60
2015,04,25,16,56,11.50
2015,04,25,16,57,11.50
2015,04,25,16,58,11.50
2015,04,25,16,59,11.50
2015,04,25,17,00,11.60
2015,04,25,17,01,11.60
2015,04,25,17,02,11.60
2015,04,25,17,03,11.70
2015,04,25,17,04,11.70
2015,04,25,17,05,11.70
2015,04,25,17,06,11.70
2015,04,25,17,07,11.60
2015,04,25,17,08,11.60
2015,04,25,17,09,11.60
2015,04,25,17,10,11.50
2015,04,25,17,11,11.40
2015,04,25,17,12,11.40
2015,04,25,17,13,11.40
2015,04,25,17,14,11.40
2015,04,25,17,15,11.40
2015,04,25,17,16,11.40
2015,04,25,17,17,11.40
2015,04,25,17,18,11.40
2015,04,25,17,19,11.40
2015,04,25,17,20,11.50
2015,04,25,17,21,11.50
2015,04,25,17,22,11.50
2015,04,25,17,23,11.50
2015,04,25,17,24,11.40
2015,04,25,17,25,11.40
2015,04,25,17,26,11.40
2015,04,25,17,27,11.50
2015,04,25,17,28,11.50
2015,04,25,17,29,11.60
2015,04,25,17,30,11.60
2015,04,25,17,31,11.50
2015,04,25,17,32,11.40
2015,04,25,17,33,11.30
2015,04,25,17,34,11.30
2015,04,25,17,35,11.30
2015,04,25,17,36,11.30
2015,04,25,17,37,11.30
2015,04,25,17,38,11.30
2015,04,25,17,39,11.30
2015,04,25,17,40,11.30
2015,04,25,17,41,11.30
2015,04,25,17,42,11.30
2015,04,25,17,43,11.30
2015,04,25,17,44,11.30
2015,04,25,17,45,11.30
2015,04,25,17,46,11.30
2015,04,25,17,47,11.30
2015,04,25,17,48,11.30
2015,04,25,17,49,11.30
2015,04,25,17,50,11.30
2015,04,25,17,51,11.30
2015,04,25,17,52,11.40
2015,04,25,17,53,11.40
2015,04,25,17,54,11.40
2015,04,25,17,55,11.40
2015,04,25,17,56,11.40
2015,04,25,17,57,11.40
2015,04,25,17,58,11.40
2015,04,25,17,59,11.30
2015,04,25,18,00,11.20
2015,04,25,18,01,11.20
2015,04,25,18,02,11.20
2015,04,25,18,03,11.20
2015,04,25,18,04,11.20
2015,04,25,18,05,11.20
2015,04,25,18,06,11.20
2015,04,25,18,07,11.20
2015,04,25,18,08,11.20
2015,04,25,18,09,11.10
2015,04,25,18,10,11.10
2015,04,25,18,11,11.10
2015,04,25,18,12,11.10
2015,04,25,18,13,11.10
2015,04,25,18,14,11.10
2015,04,25,18,15,11.10
2015,04,25,18,16,11.10
2015,04,25,18,17,11.10
2015,04,25,18,18,11.20
2015,04,25,18,19,11.30
2015,04,25,18,20,11.30
2015,04,25,18,21,11.30
2015,04,25,18,22,11.30
2015,04,25,18,23,11.30
2015,04,25,18,24,11.30
2015,04,25,18,25,11.30
2015,04,25,18,26,11.30
2015,04,25,18,27,11.30
2015,04,25,18,28,11.30
2015,04,25,18,29,11.40
2015,04,25,18,30,11.40
2015,04,25,18,31,11.40
2015,04,25,18,32,11.50
2015,04,25,18,33,11.60
2015,04,25,18,34,11.60
2015,04,25,18,35,11.60
2015,04,25,18,36,11.60
2015,04,25,18,37,11.60
2015,04,25,18,38,11.60
2015,04,25,18,39,11.60
2015,04,25,18,40,11.60
2015,04,25,18,41,11.60
2015,04,25,18,42,11.60
2015,04,25,18,43,11.60
2015,04,25,18,44,11.60
2015,04,25,18,45,11.60